星链-11078 [DTC] (STARLINK-11078 [DTC] )

导读

STARLINK-11078是美国太空探索技术公司星链星座的一颗卫星,于2024年1月3日发射升空,归属美国航天发射体系。它是星链全球卫星互联网组网计划的组成部分,加入规模庞大的近地轨道卫星星座,旨在为全球范围用户提供低延迟、高速率的宽带互联网接入服务,推进星链项目的全球覆盖部署进程。

基本信息
目录编号:
58710
目录名称:
STARLINK-11078
国际标识:
2024-002F
轨道中心:
EARTH
卫星名称:
星链-11078 [DTC]
卫星全名:
星链-11078 [DTC] (STARLINK-11078 [DTC] )
卫星状态:
在轨 (已飞行982 天)
发射日期:
2024-01-03 UTC
国别 :
美国 (US)
星等 :
--
该卫星已列入 空间交会检测服务 Space Conjunction Data Service (SCDS) ,当前飞行风险评估等级: 无高风险
轨道信息
数据来源 国际轨道数据 AOE轨道数据
星历时间 2026-09-11T01:42:28+0800
12小时前
查看轨道信息
2026-09-04T17:00:00+0800
6天前
查看轨道信息
半长轴 6737.883km 6737.803km
偏心率 0.0000814 0.0001483
轨道倾角 53.159° 53.158°
近地点辐角 122.101° 67.206°
升交点赤经 81.627° 112.996°
平近点角 238.009° 316.160°
近地点 359.197km 358.666km
远地点 360.295km 360.666km
周期 91.737分钟 91.735分钟
每日圈数 15.697036 15.697315
详细信息
固有亮度:
5
最大亮度:
0.6
卫星平台:
Starlink v2.0 mini
覆盖范围:
全球
运营商:
太空探索技术公司
运营商所在国:
美国
制造商(研发单位):
太空探索技术公司
制造商所在国:
美国
使用方式:
暂无
卫星简介
星链(Starlink)计划是由太空探索技术公司(SpaceX)提出的一个巨型低轨卫星互联网星座项目,计划在2019年至2024年间在太空搭建由约1.2万颗卫星组成的“星链”网络,其中1584颗将部署在地球上空550千米处的近地轨道,并从2020年开始工作。该卫星仍在工作。
2D轨道图
3D轨道图
轨道高度分析图
轨道倾角分析图
轨道综合分析图
查看轨道综合分析图
与全量物体交会距离演化趋势
与全量物体交会风险概率演化趋势